Precipitable_Water
1.38 1.28 1.23 1.14 1.10 1.08 1.09 1.06 0.99 0.99 1.03 1.00 0.95 0.96 0.90 0.92 0.96 0.93 0.87 0.86 0.85 0.86 0.78 0.77 0.75 0.73 0.72 0.72 0.71 0.72 0.72 0.71 0.68 0.70 0.66 0.65 0.63 0.60 0.59 0.58 0.58 0.58 0.54
1.47 1.35 1.27 1.15 1.13 1.14 1.24 1.13 1.04 1.03 1.07 1.04 0.99 0.95 0.91 0.93 0.94 0.94 0.87 0.85 0.87 0.88 0.85 0.80 0.76 0.73 0.72 0.73 0.70 0.73 0.71 0.69 0.69 0.70 0.67 0.64 0.61 0.59 0.57 0.57 0.57 0.57 0.56
1.53 1.43 1.33 1.20 1.19 1.20 1.32 1.27 1.12 1.10 1.10 1.05 1.00 0.96 0.93 0.93 0.95 0.95 0.88 0.85 0.87 0.88 0.85 0.84 0.77 0.75 0.73 0.74 0.69 0.70 0.72 0.69 0.70 0.70 0.68 0.64 0.61 0.57 0.55 0.55 0.55 0.55 0.54
1.57 1.48 1.36 1.27 1.30 1.27 1.36 1.30 1.20 1.11 1.07 1.01 1.00 0.97 0.94 0.92 0.93 0.95 0.90 0.87 0.86 0.89 0.89 0.85 0.82 0.79 0.77 0.75 0.70 0.69 0.69 0.69 0.70 0.71 0.70 0.66 0.62 0.56 0.53 0.51 0.51 0.51 0.50
1.59 1.48 1.41 1.34 1.32 1.27 1.32 1.31 1.24 1.13 1.02 0.99 1.00 0.99 0.97 0.92 0.93 0.94 0.91 0.90 0.90 0.89 0.89 0.88 0.84 0.80 0.80 0.77 0.71 0.69 0.69 0.72 0.71 0.74 0.71 0.69 0.65 0.60 0.55 0.51 0.49 0.50 0.50
1.55 1.52 1.46 1.35 1.28 1.23 1.24 1.25 1.18 1.13 1.03 0.99 0.99 0.99 0.99 0.97 0.97 0.94 0.93 0.92 0.92 0.91 0.94 0.88 0.83 0.82 0.81 0.78 0.75 0.74 0.70 0.71 0.72 0.75 0.74 0.72 0.69 0.63 0.60 0.53 0.52 0.50 0.48
1.50 1.51 1.47 1.39 1.27 1.16 1.15 1.18 1.15 1.10 1.01 1.02 0.95 0.96 0.99 1.01 0.99 0.96 0.96 0.93 0.93 0.92 0.97 0.91 0.84 0.84 0.82 0.79 0.79 0.78 0.74 0.74 0.74 0.75 0.77 0.75 0.70 0.68 0.65 0.60 0.55 0.50 0.50
1.52 1.49 1.48 1.40 1.22 1.19 1.16 1.17 1.12 1.07 1.03 1.02 0.90 0.92 0.83 0.91 0.97 0.98 0.97 0.93 0.93 0.92 0.95 0.94 0.88 0.86 0.85 0.82 0.84 0.82 0.81 0.78 0.76 0.75 0.75 0.75 0.71 0.70 0.67 0.64 0.61 0.56 0.54
1.50 1.45 1.47 1.47 1.29 1.22 1.14 1.14 1.13 1.07 0.98 1.02 1.00 0.85 0.76 0.70 0.84 0.93 0.93 0.94 0.94 0.91 0.91 0.93 0.91 0.91 0.88 0.86 0.84 0.84 0.85 0.79 0.80 0.75 0.73 0.73 0.72 0.71 0.70 0.68 0.65 0.63 0.59
1.47 1.49 1.46 1.43 1.36 1.31 1.17 1.14 1.17 1.13 1.07 0.96 1.01 0.94 0.90 0.84 0.74 0.72 0.88 0.91 0.93 0.91 0.90 0.91 0.92 0.92 0.92 0.90 0.88 0.87 0.85 0.80 0.77 0.74 0.72 0.71 0.70 0.70 0.69 0.68 0.68 0.65 0.62
1.42 1.45 1.48 1.43 1.37 1.36 1.30 1.22 1.17 1.17 1.12 1.05 0.97 0.95 0.89 0.91 0.87 0.77 0.71 0.80 0.90 0.93 0.93 0.92 0.91 0.92 0.92 0.96 0.94 0.91 0.86 0.79 0.76 0.72 0.71 0.70 0.68 0.67 0.67 0.66 0.67 0.70 0.66
1.38 1.40 1.43 1.45 1.40 1.35 1.30 1.27 1.27 1.25 1.20 1.13 1.09 1.02 0.92 0.87 0.86 0.84 0.80 0.83 0.84 0.91 0.96 0.96 0.93 0.93 0.93 0.94 1.00 0.95 0.88 0.81 0.77 0.74 0.69 0.69 0.69 0.68 0.68 0.66 0.65 0.67 0.66
1.25 1.31 1.37 1.36 1.39 1.36 1.33 1.28 1.26 1.29 1.27 1.20 1.18 1.10 1.07 1.01 1.01 0.97 0.93 0.90 0.88 0.94 0.96 1.02 0.99 0.95 0.93 0.94 0.97 0.95 0.90 0.84 0.78 0.76 0.72 0.69 0.68 0.68 0.66 0.67 0.65 0.65 0.66
1.28 1.33 1.33 1.35 1.36 1.39 1.37 1.33 1.29 1.29 1.31 1.28 1.24 1.23 1.17 1.12 1.11 1.07 1.01 0.98 0.93 0.97 1.01 0.95 1.02 1.01 0.97 0.96 0.98 0.98 0.91 0.87 0.83 0.79 0.74 0.70 0.68 0.67 0.65 0.66 0.67 0.66 0.65
1.33 1.32 1.31 1.32 1.34 1.34 1.35 1.34 1.29 1.26 1.28 1.27 1.25 1.24 1.24 1.22 1.19 1.14 1.09 1.04 0.93 0.84 0.86 1.01 0.99 1.06 1.03 0.99 0.99 1.00 0.95 0.88 0.86 0.83 0.77 0.71 0.70 0.67 0.66 0.67 0.67 0.63 0.65
1.41 1.36 1.34 1.35 1.36 1.36 1.36 1.35 1.28 1.26 1.24 1.26 1.28 1.25 1.22 1.23 1.22 1.19 1.12 1.08 1.04 0.99 0.91 1.03 1.04 1.06 1.04 1.01 1.01 1.00 0.95 0.90 0.86 0.84 0.79 0.73 0.70 0.68 0.68 0.67 0.69 0.70 0.65
1.44 1.41 1.37 1.36 1.36 1.36 1.38 1.37 1.35 1.32 1.26 1.24 1.27 1.25 1.26 1.27 1.23 1.22 1.19 1.13 1.10 1.07 0.99 1.02 1.06 1.06 1.04 0.96 0.98 0.99 0.94 0.88 0.87 0.85 0.80 0.76 0.73 0.76 0.70 0.72 0.73 0.68 0.62
1.53 1.45 1.40 1.39 1.38 1.38 1.40 1.38 1.34 1.34 1.30 1.28 1.29 1.28 1.24 1.27 1.26 1.26 1.30 1.25 1.14 1.13 1.07 1.00 1.07 1.08 1.06 1.02 0.97 0.95 0.97 0.98 0.86 0.82 0.78 0.74 0.79 0.80 0.72 0.71 0.73 0.66 0.56
1.47 1.51 1.40 1.34 1.33 1.38 1.39 1.42 1.41 1.39 1.35 1.33 1.34 1.30 1.32 1.27 1.24 1.24 1.20 1.16 1.13 1.15 1.19 1.08 1.05 1.09 1.05 1.03 0.99 0.99 0.95 0.95 0.91 0.83 0.80 0.83 0.91 0.77 0.69 0.71 0.70 0.62 0.55
1.31 1.39 1.36 1.30 1.31 1.32 1.35 1.37 1.37 1.36 1.36 1.37 1.37 1.36 1.33 1.29 1.30 1.26 1.21 1.19 1.17 1.12 1.13 1.08 1.03 1.04 1.01 1.01 0.98 0.90 0.91 0.94 0.83 0.83 0.86 0.93 0.87 0.78 0.72 0.71 0.67 0.61 0.56
1.25 1.30 1.35 1.32 1.31 1.28 1.26 1.27 1.30 1.32 1.34 1.32 1.31 1.32 1.32 1.33 1.33 1.34 1.22 1.22 1.13 1.08 1.09 1.04 0.97 0.98 0.94 0.92 0.89 0.93 0.87 0.86 0.84 0.89 0.88 0.86 0.83 0.79 0.77 0.69 0.63 0.60 0.57
1.01 1.24 1.26 1.26 1.22 1.25 1.25 1.25 1.26 1.21 1.23 1.22 1.21 1.23 1.27 1.29 1.27 1.25 1.19 1.18 1.19 1.10 1.02 0.96 0.96 0.92 0.94 0.96 0.96 0.90 0.84 0.81 0.75 0.88 0.83 0.79 0.81 0.77 0.73 0.68 0.63 0.58 0.56
0.90 0.95 1.10 1.18 1.16 1.19 1.23 1.28 1.29 1.29 1.21 1.20 1.20 1.18 1.17 1.21 1.20 1.20 1.19 1.12 1.06 1.08 1.09 1.03 0.95 0.95 0.91 0.96 0.95 0.87 0.84 0.83 0.80 0.84 0.80 0.73 0.77 0.71 0.72 0.69 0.63 0.60 0.62
0.80 0.88 0.92 1.00 1.06 1.15 1.16 1.17 1.17 1.21 1.13 1.13 1.14 1.16 1.13 1.13 1.16 1.14 1.12 1.06 1.03 1.04 1.03 1.01 0.99 0.98 0.98 0.97 0.95 0.90 0.86 0.83 0.81 0.81 0.80 0.68 0.74 0.71 0.71 0.68 0.66 0.66 0.61
0.69 0.74 0.82 0.84 0.89 0.95 1.02 1.05 1.05 1.05 1.03 1.00 1.04 1.10 1.11 1.08 1.10 1.10 1.04 0.99 0.97 0.94 1.02 1.00 0.98 0.96 0.96 0.95 0.91 0.84 0.77 0.75 0.71 0.72 0.76 0.71 0.69 0.67 0.67 0.67 0.65 0.63 0.54
0.72 0.72 0.76 0.80 0.81 0.85 0.94 0.97 0.97 0.94 0.94 0.93 0.94 0.99 1.02 1.01 1.03 1.01 0.95 0.90 0.84 0.87 0.91 0.90 0.89 0.87 0.88 0.88 0.88 0.85 0.81 0.72 0.69 0.65 0.72 0.67 0.66 0.65 0.57 0.64 0.62 0.61 0.56
Wind_Speed
28 27 25 25 24 24 23 22 22 20 19 17 17 15 14 12 11 10 10 9 9 8 8 7 6 5 4 4 3 3 2 3 4 4 5 5 4 4 4 5 4 4 4
29 28 27 26 26 26 25 24 23 22 20 19 18 17 16 15 13 12 12 12 11 10 10 9 8 7 6 6 5 4 4 4 4 5 5 5 5 5 5 5 5 5 5
31 30 28 27 27 27 26 25 24 24 22 21 20 20 19 17 16 15 14 13 13 12 12 11 10 9 9 8 7 6 6 5 5 5 5 5 5 5 6 6 6 6 6
33 31 30 29 29 29 27 26 26 25 24 23 22 21 20 20 19 17 16 15 15 15 14 13 13 12 11 10 9 9 8 8 7 7 7 6 6 6 6 7 7 8 8
34 33 31 31 30 30 29 28 27 26 25 24 23 22 22 21 21 20 19 18 17 17 16 16 15 14 14 13 12 11 10 10 9 8 8 8 7 7 7 8 8 9 9
36 35 33 32 31 31 31 30 29 28 26 25 24 23 22 22 22 22 21 20 19 19 18 18 17 17 16 16 15 14 13 12 11 10 9 9 9 9 8 9 9 10 10
37 37 35 34 33 33 32 32 31 29 28 27 25 23 22 23 23 23 23 22 22 21 20 20 20 19 19 18 18 16 15 14 13 12 11 11 11 10 10 10 10 11 12
37 38 38 36 35 34 34 34 33 31 30 30 28 25 24 24 24 25 25 25 24 24 23 22 22 21 21 20 20 19 18 17 15 14 13 13 12 12 12 12 12 12 13
38 38 40 38 38 37 36 36 35 34 32 32 32 26 24 25 26 27 27 27 27 27 26 26 25 24 23 23 22 21 20 19 18 17 16 15 14 14 14 14 14 14 14
41 41 40 40 40 39 38 38 38 37 35 34 34 33 29 26 26 26 30 30 29 30 29 29 28 27 27 26 25 24 23 22 20 19 18 17 17 16 16 16 16 17 17
44 44 43 42 41 42 41 40 40 39 39 37 37 37 34 31 30 28 30 32 33 33 33 32 31 31 30 28 28 28 27 25 24 22 21 21 20 19 19 19 18 18 19
45 46 46 44 43 43 43 43 43 43 42 40 40 38 39 36 34 32 31 34 35 35 36 35 34 34 33 32 31 30 30 29 27 26 25 23 22 21 21 20 20 20 19
45 46 47 46 45 44 44 44 45 46 45 44 43 43 42 41 39 38 36 35 35 36 38 39 38 37 36 36 35 33 33 32 31 29 27 26 25 24 24 23 23 23 22
43 45 47 47 47 46 46 46 46 47 47 47 47 46 45 45 43 42 41 39 35 38 40 40 41 41 40 39 38 36 36 35 34 32 30 29 27 27 26 26 26 25 23
41 43 46 47 47 48 47 47 48 49 49 49 49 48 48 46 46 45 45 45 42 41 43 43 41 44 43 42 41 38 38 38 37 35 32 31 29 28 27 26 26 25 25
43 43 44 46 47 47 47 48 48 49 50 50 51 50 50 50 49 48 48 48 48 45 44 44 44 44 45 44 42 40 39 39 38 37 35 33 31 30 29 28 27 26 25
45 44 45 46 47 48 48 49 49 48 50 50 51 52 53 52 52 51 50 51 51 48 45 44 46 45 46 46 42 40 40 39 39 39 37 34 33 32 30 29 28 27 27
46 46 46 47 47 48 48 49 50 50 50 51 51 50 52 53 55 54 54 54 54 52 52 50 46 43 43 51 50 47 43 40 40 38 37 36 34 33 31 31 30 28 27
47 47 46 48 49 49 50 50 50 51 51 52 52 53 53 52 53 53 53 53 55 56 55 51 56 46 43 42 43 46 48 44 42 40 39 39 38 35 33 32 31 29 28
42 46 47 48 49 49 50 51 51 52 53 53 54 54 53 54 55 55 56 56 56 57 55 52 49 45 46 46 43 43 44 45 42 40 39 38 36 35 34 33 32 31 29
40 41 44 44 45 46 47 48 50 51 51 52 53 55 55 56 57 58 57 56 57 57 57 53 52 50 47 44 42 42 43 42 41 41 39 37 36 35 34 34 33 32 31
39 39 41 41 44 43 45 46 47 48 50 52 52 53 54 55 55 54 57 53 54 50 51 46 53 52 53 47 44 41 41 41 38 39 38 36 35 34 34 34 34 33 33
36 38 39 40 40 43 43 44 45 46 48 50 51 51 52 52 53 54 54 54 55 55 56 54 49 52 48 47 43 41 41 42 38 37 35 35 35 33 34 33 34 34 34
37 37 37 40 41 41 42 43 45 47 47 48 49 49 51 50 51 50 50 50 50 51 50 48 47 45 44 42 43 42 41 40 37 36 35 32 33 33 33 32 33 34 34
38 38 37 37 39 40 41 41 41 43 44 45 46 47 47 46 47 47 47 46 43 43 40 41 39 38 40 40 40 38 37 38 35 35 35 32 32 31 32 32 33 33 33
38 37 38 38 38 39 40 41 41 41 42 43 44 44 45 44 43 43 43 43 42 40 38 38 38 36 38 39 39 38 35 35 33 31 35 32 33 31 31 33 32 33 33
Wind_Direction
217 217 218 217 217 216 216 216 216 218 219 220 222 223 222 223 222 223 221 221 223 224 228 230 232 236 244 252 260 269 288 302 310 310 309 306 298 287 269 255 250 249 246
219 219 220 219 219 218 218 219 220 221 222 223 225 224 225 225 226 227 228 227 229 230 232 235 236 241 245 249 257 262 274 286 300 305 305 303 291 283 268 256 248 245 247
220 221 221 221 221 220 219 220 221 222 224 226 227 227 227 228 229 231 232 233 233 235 237 238 240 242 244 249 253 260 265 277 288 294 299 296 289 279 267 253 248 251 255
222 223 223 223 223 222 222 222 222 223 225 226 227 229 230 231 232 234 236 236 237 239 239 241 241 243 246 249 251 256 261 269 278 285 286 287 284 279 264 256 254 259 264
222 223 224 225 223 224 224 223 224 225 225 227 228 230 231 233 234 235 237 238 239 240 241 241 243 246 247 249 251 254 258 263 272 278 279 280 279 277 267 260 260 263 264
224 224 225 226 225 225 225 225 225 225 226 227 228 230 232 235 236 237 238 239 240 241 242 243 245 247 248 249 250 251 254 259 265 271 273 274 275 275 271 268 265 266 265
225 225 226 226 226 226 226 225 225 225 226 226 226 229 233 237 238 239 239 241 241 242 243 245 247 249 249 250 251 251 253 256 259 265 269 272 272 272 271 270 268 267 268
226 227 227 228 227 227 227 226 225 226 228 226 227 229 237 241 241 240 241 242 243 244 246 247 249 250 250 251 251 251 251 253 256 259 265 268 270 270 270 270 270 269 271
230 229 229 230 228 228 228 228 227 227 229 229 229 235 239 244 239 244 244 244 245 246 248 249 249 250 251 252 251 250 250 251 253 256 260 264 267 268 270 271 271 271 271
231 230 230 230 229 230 230 230 230 230 230 232 232 236 243 243 244 247 245 246 247 247 248 250 250 251 252 253 251 250 249 249 251 254 258 261 265 267 269 272 273 272 272
232 231 230 231 231 232 232 231 231 232 233 235 236 236 242 246 246 251 250 247 248 248 249 251 251 252 252 252 252 251 248 248 250 253 255 258 262 265 268 272 273 274 273
233 232 232 232 233 233 234 233 234 235 236 237 239 241 242 245 247 251 254 249 249 249 250 250 252 252 252 253 252 250 247 248 250 251 254 257 260 263 266 267 270 272 274
233 232 232 233 234 235 236 236 236 237 238 239 241 243 244 247 249 250 253 252 252 251 252 251 253 252 253 252 253 251 248 247 248 250 252 255 259 261 265 267 267 269 273
235 234 233 234 235 236 237 238 239 239 240 242 243 245 247 248 249 251 251 252 252 254 252 254 252 252 251 252 253 250 249 247 247 248 250 253 257 260 262 265 267 268 272
236 234 234 235 236 237 238 239 241 241 242 243 245 246 248 249 250 251 252 252 252 255 255 254 255 252 251 251 251 249 249 248 247 247 249 252 256 258 262 265 264 265 272
237 236 236 236 237 238 239 240 242 243 243 245 246 247 248 250 251 251 253 254 254 257 259 255 254 255 250 248 248 248 249 247 247 247 247 251 254 257 260 260 261 267 266
238 238 237 238 239 240 240 241 243 243 244 246 247 248 250 250 253 253 254 255 254 255 258 257 253 258 251 243 246 246 247 247 247 246 246 248 252 257 256 258 262 264 266
240 239 239 240 240 241 241 242 244 245 246 247 249 250 252 252 252 254 254 255 256 255 257 255 251 261 254 249 247 248 248 242 245 245 244 247 251 255 253 257 260 261 261
242 242 241 241 241 241 242 244 245 246 248 249 250 251 252 253 253 254 256 257 257 257 257 261 257 261 255 246 250 250 245 245 243 242 244 250 253 250 254 257 258 257 259
247 244 243 243 243 244 244 245 246 248 249 251 252 253 253 254 254 256 257 257 256 258 258 257 258 257 252 248 250 248 244 243 241 241 245 250 248 250 253 255 254 255 257
247 246 244 243 244 244 245 245 246 248 250 252 253 253 254 255 256 256 258 257 255 257 254 252 255 254 251 245 249 248 243 239 239 244 245 245 245 248 252 252 253 253 256
247 247 246 246 244 246 247 247 248 249 251 252 253 253 254 255 256 257 257 260 261 259 257 259 256 253 248 246 245 244 239 234 239 240 239 243 244 248 251 251 250 252 256
249 248 249 249 249 248 249 249 250 252 252 253 253 254 255 256 255 257 258 259 261 260 258 260 257 249 242 243 240 241 236 234 240 237 238 243 245 248 249 249 250 252 255
249 249 250 250 250 252 252 252 253 251 254 254 254 255 255 255 255 256 257 258 260 260 260 253 249 246 246 241 239 239 236 234 236 237 238 244 242 246 246 251 252 253 254
250 250 251 250 251 252 253 253 252 252 252 254 255 255 255 254 255 255 255 255 257 259 255 248 247 244 239 235 235 234 234 231 234 236 236 243 242 246 249 254 253 253 253
249 249 251 251 252 253 252 252 251 252 253 255 256 255 253 254 254 254 255 253 253 254 251 248 245 243 238 234 231 231 231 232 231 239 238 241 240 244 253 253 252 253 254